Location: Peterborough
(44.3091°N, 78.3197°W)
Time: 16:41:46
(UTC-04:00)

Transit 2A Rocket - Pass Details

Date: 31 March 2023
Orbit: 584 x 914 km, 66.7° (Epoch: 04 June)

Event Time Altitude Azimuth Distance (km) Brightness Sun altitude
Rises 20:25:10 0° 323° (NW) 3,556 9.4 -8.9°
Reaches altitude 10° 20:27:49 10° 317° (NW) 2,600 8.7 -9.4°
Maximum altitude 20:33:33 45° 247° (WSW) 1,186 6.4 -10.3°
Drops below altitude 10° 20:39:00 10° 176° (S) 2,459 7.4 -11.3°
Sets 20:41:27 0° 170° (S) 3,344 8.0 -11.7°
